Regional Weather Roundup
Issued by NWS

Home | Current Version | Previous Version | Text Only | Print | Product List | Glossary Off
Versions: 1 2 3 4 5 6 7 8 9 10 11 12 13 14 15 16 17 18 19 20 21 22 23 24 25 26 27 28 29 30 31 32 33 34 35 36 37 38 39 40 41 42 43 44 45 46 47 48 49 50

000
ASUS43 KLOT 011700
RWRIL

ILLINOIS REGIONAL WEATHER ROUNDUP
NATIONAL WEATHER SERVICE CHICAGO/ROMEOVILLE IL
1200 PM CDT MON SEP 01 2014

NOTE: "FAIR" INDICATES FEW OR NO CLOUDS BELOW 12,000 FEET WITH NO
SIGNIFICANT WEATHER AND/OR OBSTRUCTIONS TO VISIBILITY.

* THESE STATIONS ARE NOT UNDER NWS QUALITY CONTROL. THEY ALSO MAY NOT
  REPORT WEATHER SUCH AS PRECIPITATION OR FOG.

ILZ001-002-007-009-015-016-024-011800-
NORTHWEST ILLINOIS

CITY           SKY/WX    TMP DP  RH WIND       PRES   REMARKS
MOLINE         MOSUNNY   78  65  63 SW16G23   29.78S HX  80
STERLING*      MOSUNNY   81  66  61 W15G21    29.79S HX  83
$$

ILZ003-004-008-010-011-017-018-011800-
NORTH CENTRAL ILLINOIS

CITY           SKY/WX    TMP DP  RH WIND       PRES   REMARKS
ROCKFORD       PTSUNNY   78  66  66 W13       29.78F HX  80
FREEPORT*      MOSUNNY   78  69  73 SW12G21   29.79F HX  80
$$

ILZ005-006-012>014-019>023-011800-
NORTHEAST ILLINOIS

CITY           SKY/WX    TMP DP  RH WIND       PRES   REMARKS
CHICAGO-OHARE  CLOUDY    76  67  73 W13       29.77F
CHICAGO-MIDWAY CLOUDY    81  75  82 SW13      29.78F HX  87
AURORA         CLOUDY    77  68  73 SW12      29.80R
WAUKEGAN       CLOUDY    76  71  85 SW12      29.75F
DUPAGE AIRPORT CLOUDY    77  69  76 SW13      29.78F
WHEELING       CLOUDY    77  70  79 S12       29.77F
NORTHERLY ISL    N/A     78  69  73 SW10        N/A  HX  80
$$

LMZ740>746-011800-
SOUTHERN LAKE MICHIGAN

STATION/POSITION SKY/WX   TEMP    WIND        PRES    VSBY  WAVE
                          AIR SEA DIR/SP/G                  HT/PER
                          (F)     (DEG/KT/KT) (MB)    (MI)  (FT/S)
SOUTHERN BUOY              72 69  200/ 17/ 21 1007.6R         4/ 5
WAUKEGAN HARBOR            73     220/ 11/ 13   N/A
HARRISON CRIB              76     220/ 16/ 20   N/A
BURNHAM HARBOR             77     240/  9/ 16   N/A
CALUMET HARBOR             78     230/  8/ 12 1007.6R
MICHIGAN CITY              74     170/ 17/ 22   N/A
MICHIGAN CITY 6N           74 72  220/ 14/ 19   N/A           2/ 3
ST. JOSEPH                 73 72  210/ 14/ 17   N/A           3/ 4
$$

ILZ025>027-034>036-040-047-049-050-058-095>099-011800-
WEST-CENTRAL ILLINOIS

CITY           SKY/WX    TMP DP  RH WIND       PRES   REMARKS
QUINCY         PTSUNNY   74  64  71 W14G21    29.87R
GALESBURG*     PTSUNNY   79  67  67 W13       29.83R HX  82
MACOMB*        PTSUNNY   76  66  71 W14       29.86R
$$

ILZ028>032-037-038-041>044-048-051>054-059>061-011800-
CENTRAL ILLINOIS

CITY           SKY/WX    TMP DP  RH WIND       PRES   REMARKS
DECATUR        CLOUDY    81  68  64 SW13      29.85R HX  84
PEORIA         MOSUNNY   79  64  60 W9        29.83R HX  81
SPRINGFIELD    CLOUDY    80  65  59 W9        29.85R HX  82
TAYLORVILLE    NOT AVBL
$$

ILZ033-039-045-046-055>057-062-063-011800-
EAST-CENTRAL ILLINOIS

CITY           SKY/WX    TMP DP  RH WIND       PRES   REMARKS
CHAMPAIGN      CLOUDY    81  70  69 SW16G26   29.84R HX  84
MATTOON        CLOUDY    79  71  76 S15G29    29.85R HX  82
$$

ILZ079-100>102-011800-
SOUTHWEST ILLINOIS

CITY           SKY/WX    TMP DP  RH WIND       PRES   REMARKS
ALTON          CLOUDY    79  64  61 SW13      29.88  HX  81
BELLEVILLE     CLOUDY    79  68  69 VRB2      29.87R HX  82
CAHOKIA*       CLOUDY    78  66  66 W8        29.87R HX  80
$$

ILZ064>066-069>071-074>076-080>082-084>086-088>090-092>094-011800-
SOUTH-CENTRAL ILLINOIS

CITY           SKY/WX    TMP DP  RH WIND       PRES   REMARKS
CARBONDALE     CLOUDY    79  71  76 S24G31    29.89F HX  82
EFFINGHAM*     CLOUDY    80  69  68 S16G22    29.86S HX  82
MARION         PTSUNNY   81  73  78 S17G25    29.93F HX  85
MT. VERNON     CLOUDY    81  72  74 S16G28    29.88R HX  84
$$

ILZ067-068-072-073-078-083-087-091-011800-
SOUTHEAST ILLINOIS

CITY           SKY/WX    TMP DP  RH WIND       PRES   REMARKS
LAWRENCEVILLE  CLOUDY    82  73  74 S17G28    29.87F HX  87
$$

ABBREVIATIONS USED IN REMARKS
   TC - TEMPERATURE IN CELSIUS
  WCI - WIND CHILL INDEX
   HX - HEAT INDEX
  VSB - VISIBILITY
$$



USA.gov is the U.S. government's official web portal to all federal, state and local government web resources and services.